User: anonymous   Login
Location: Maiden
(35.5760°N, 81.2120°W)
Time: 03:06:06
(UTC-05:00)
Language:

Cosmos 2151 - Orbit

View from above orbital plane
View from above orbital plane
View from above satellite
View from above satellite

Ground track
Ground track

The orbit data is extracted from the following two-line orbital elements,

1 21422U 91042A   16038.88619620  .00000694  00000-0  66651-4 0  9992
2 21422  82.5021 357.6765 0015230 142.7292 217.4988 14.91516955334665
Epoch (UTC): 07 February 2016 21:16:07
Eccentricity: 0.0015230
inclination: 82.5021°
perigee height: 582 km
apogee height: 604 km
right ascension of ascending node: 357.6765°
argument of perigee: 142.7292°
revolutions per day: 14.91516955
mean anomaly at epoch: 217.4988°
orbit number at epoch: 33466

The dashed part of the orbit path shows where the satellite is in the earth's shadow,  

DLR